Gwinn, MI

9:14 PM EST on February 06, 2016 (GMT -0500)
Sawyer International

Weather History for KSAW - March, 2013

Change the Weather History Date:

Friday, March 15, 2013

  Actual Average (KESC) Record (KESC)
Temperature  
Mean Temperature 24 °F -  
Max Temperature 33 °F 36 °F 62 °F (2012)
Min Temperature 14 °F 19 °F -2 °F (1997)
Degree Days  
Heating Degree Days 42    
Moisture  
Dew Point 19 °F    
Average Humidity 82    
Maximum Humidity 89    
Minimum Humidity 68    
Precipitation  
Precipitation 0.00 in - - ()
Sea Level Pressure  
Sea Level Pressure 29.90 in    
Wind  
Wind Speed 10 mph (NNW)    
Max Wind Speed 24 mph    
Max Gust Speed 30 mph    
Visibility 8 miles    
Events Snow    
Averages and records for this station are not official NWS values.
T = Trace of Precipitation, MM = Missing Value Source: NWS Daily Summary

Daily Weather History Graph

Daily Weather History Graph

Search for Another Location

Airport or City:

Trip Planner

Search our weather history database for the weather conditions in past years. The results will help you decide how hot, cold, wet, or windy it might be!

Date:

Astronomy

Mar. 15, 2013 Rise Set
Actual Time 8:01 AM EDT 7:55 PM EDT
Civil Twilight 7:31 AM EDT 8:25 PM EDT
Nautical Twilight 6:56 AM EDT 9:00 PM EDT
Astronomical Twilight 6:21 AM EDT 9:36 PM EDT
Moon 9:36 AM EDT (3/15) No Moon Set
Length of Visible Light 12h 53m
Length of Day
11h 53m
Waxing Crescent, 15% of the Moon is Illuminated
Mar 15
Waxing Crescent
Mar 19
First Quarter
Mar 27
Full
Apr 3
Last Quarter
Apr 10
New

Hourly Weather History & Observations

Time (EDT) Temp. Windchill Dew Point Humidity Pressure Visibility Wind Dir Wind Speed Gust Speed Precip Events Conditions
12:16 AM 32.4 °F 26.9 °F 26.6 °F 79% 29.87 in 10.0 mi West 5.8 mph - N/A Snow Light Snow
12:37 AM 32.0 °F 27.5 °F 26.8 °F 81% 29.86 in 10.0 mi West 4.6 mph - N/A   Overcast
12:57 AM 32.0 °F 26.4 °F 27.3 °F 83% 29.86 in 10.0 mi West 5.8 mph - N/A   Overcast
1:16 AM 32.0 °F 26.4 °F 27.7 °F 84% 29.86 in 10.0 mi West 5.8 mph - N/A   Overcast
1:37 AM 32.0 °F 26.4 °F 28.0 °F 85% 29.85 in 7.0 mi West 5.8 mph - N/A Snow Light Snow
1:57 AM 32.0 °F 26.4 °F 28.2 °F 86% 29.85 in 10.0 mi West 5.8 mph - N/A   Overcast
2:16 AM 32.0 °F 25.6 °F 28.6 °F 87% 29.85 in 10.0 mi West 6.9 mph - N/A   Overcast
2:37 AM 32.0 °F 25.6 °F 28.9 °F 88% 29.84 in 10.0 mi WNW 6.9 mph - N/A   Overcast
2:56 AM 32.2 °F 27.7 °F 29.1 °F 88% 29.84 in 10.0 mi NW 4.6 mph - N/A   Overcast
3:17 AM 32.9 °F 24.1 °F 29.3 °F 87% 29.84 in 10.0 mi NNW 11.5 mph - N/A   Overcast
3:37 AM 33.8 °F 23.5 °F 30.2 °F 87% 29.84 in 10.0 mi North 16.1 mph 20.7 mph N/A   Overcast
3:56 AM 29.3 °F 15.3 °F 26.4 °F 89% 29.84 in 4.0 mi North 24.2 mph 28.8 mph N/A Snow Light Snow
4:17 AM 28.6 °F 16.0 °F 25.3 °F 88% 29.85 in 7.0 mi North 18.4 mph 29.9 mph N/A   Overcast
4:37 AM 28.4 °F 15.1 °F 24.8 °F 86% 29.85 in 10.0 mi North 20.7 mph 24.2 mph N/A   Overcast
4:56 AM 27.5 °F 13.9 °F 23.9 °F 86% 29.85 in 10.0 mi NNE 20.7 mph - N/A   Overcast
5:17 AM 27.1 °F 14.9 °F 23.5 °F 86% 29.85 in 10.0 mi North 16.1 mph - N/A   Overcast
5:36 AM 27.0 °F 15.2 °F 22.3 °F 83% 29.86 in 10.0 mi North 15.0 mph 23.0 mph N/A   Overcast
5:57 AM 26.8 °F 14.9 °F 21.9 °F 82% 29.86 in 10.0 mi North 15.0 mph - N/A   Overcast
6:50 AM 26.6 °F 14.7 °F 19.4 °F 74% 29.87 in 10.0 mi North 15.0 mph - N/A   Overcast
7:50 AM 24.8 °F 12.9 °F 19.4 °F 80% 29.89 in 10.0 mi North 13.8 mph 19.6 mph N/A   Overcast
8:50 AM 24.8 °F 14.0 °F 17.6 °F 74% 29.92 in 10.0 mi North 11.5 mph - N/A   Overcast
9:50 AM 23.0 °F 10.6 °F 15.8 °F 74% 29.93 in 7.0 mi NNW 13.8 mph 19.6 mph N/A Snow Light Snow
10:15 AM 23.0 °F 8.7 °F 17.6 °F 80% 29.93 in 1.5 mi North 18.4 mph - N/A Snow Light Snow
10:50 AM 21.2 °F 6.4 °F 17.6 °F 86% 29.94 in 1.2 mi North 18.4 mph - N/A Snow Light Snow
11:50 AM 21.2 °F 7.3 °F 17.6 °F 86% 29.94 in 1.2 mi North 16.1 mph - N/A Snow Light Snow
12:50 PM 21.2 °F 6.0 °F 14.0 °F 74% 29.94 in 5.0 mi NNE 19.6 mph - N/A Snow Light Snow
1:50 PM 21.2 °F 6.8 °F 14.0 °F 74% 29.95 in 5.0 mi North 17.3 mph - N/A Snow Light Snow
2:50 PM 19.4 °F 5.0 °F 12.2 °F 74% 29.95 in 7.0 mi North 16.1 mph - N/A Snow Light Snow
3:50 PM 19.4 °F 4.1 °F 12.2 °F 74% 29.94 in 10.0 mi NNE 18.4 mph 21.9 mph N/A Snow Light Snow
4:50 PM 17.6 °F 2.7 °F 10.4 °F 73% 29.94 in 10.0 mi North 16.1 mph - N/A   Mostly Cloudy
5:55 PM 17.6 °F 3.7 °F 8.6 °F 68% 29.94 in 10.0 mi NNE 13.8 mph - N/A   Overcast
6:50 PM 15.8 °F 0.3 °F 8.6 °F 73% 29.95 in 10.0 mi North 16.1 mph - N/A   Mostly Cloudy
7:55 PM 15.8 °F 4.2 °F 8.6 °F 73% 29.95 in 7.0 mi North 9.2 mph - N/A Snow Light Snow
8:55 PM 15.8 °F 5.1 °F 10.4 °F 79% 29.96 in 4.0 mi North 8.1 mph - N/A Snow Light Snow
9:50 PM 15.8 °F 7.2 °F 10.4 °F 79% 29.95 in 5.0 mi NNW 5.8 mph - N/A Snow Light Snow
10:17 PM 14.9 °F 4.0 °F 10.8 °F 84% 29.95 in 4.0 mi NNW 8.1 mph - N/A Snow Light Snow
10:37 PM 14.9 °F 5.0 °F 11.3 °F 86% 29.95 in 3.0 mi NNW 6.9 mph - N/A Snow Light Snow
10:56 PM 14.7 °F 5.9 °F 11.3 °F 86% 29.95 in 3.0 mi NNW 5.8 mph - N/A Snow Light Snow
11:17 PM 14.7 °F 5.9 °F 11.3 °F 86% 29.95 in 4.0 mi NNW 5.8 mph - N/A Snow Light Snow
11:36 PM 14.5 °F 4.6 °F 11.1 °F 86% 29.95 in 7.0 mi NNW 6.9 mph - N/A Snow Light Snow
11:57 PM 14.5 °F 5.7 °F 11.3 °F 87% 29.95 in 5.0 mi NNW 5.8 mph - N/A Snow Light Snow